Wind_Speed
19 16 22 23 24 26 23 22 23 24 24 23 20 20 16 13 11 8 6 7 4 3 1 3 6 6 8 11 11 11 14 15 15 22 24 23 22 17 17 16 19 18 17
22 19 20 24 25 24 25 25 26 25 23 22 20 18 16 13 11 11 9 6 3 2 2 5 7 9 11 11 12 13 15 16 16 17 22 23 22 17 17 16 18 18 17
24 24 22 21 20 24 26 26 25 24 23 21 20 18 16 13 12 9 7 6 3 2 2 5 7 9 10 10 11 14 14 15 16 18 21 21 18 14 15 17 19 22 21
21 23 24 24 25 24 25 25 24 22 22 20 18 16 14 12 9 8 7 5 2 1 4 6 7 9 9 9 12 12 13 15 17 17 17 17 16 15 17 20 21 22 22
19 19 23 25 24 24 23 22 23 22 20 19 18 15 13 10 6 7 4 2 2 3 5 7 7 6 12 9 6 11 12 15 17 18 19 18 16 16 15 16 19 20 21
19 23 24 23 24 23 23 23 22 20 20 18 16 14 12 9 7 3 3 2 2 5 7 8 9 11 11 7 11 8 11 9 10 14 17 17 16 15 16 17 20 21 16
16 22 21 19 21 21 21 22 20 20 17 15 13 12 10 7 3 2 2 2 5 5 7 9 11 10 11 11 13 11 12 17 15 11 14 14 15 12 13 17 22 23 23
15 17 21 19 20 21 21 20 19 18 16 16 14 10 7 4 3 3 3 3 6 7 8 9 12 12 12 9 11 14 16 16 13 10 13 15 14 13 16 21 24 27 27
18 16 15 18 21 22 24 24 22 22 18 14 10 7 5 1 1 2 3 6 7 9 10 11 12 13 15 16 14 16 16 16 15 12 11 14 18 21 21 20 21 20 20
24 28 29 31 30 28 25 23 18 14 13 9 8 6 4 2 4 5 5 8 10 10 10 10 6 8 11 4 8 14 17 17 18 16 16 19 19 19 19 21 21 21 19
30 30 33 31 30 28 25 21 20 15 9 8 5 3 0 2 4 6 5 8 10 11 11 11 5 9 8 9 11 13 18 21 20 23 21 20 17 16 17 18 17 18 22
39 36 30 29 24 24 24 17 16 12 8 3 3 2 2 2 2 1 4 8 11 11 13 13 15 20 20 23 23 22 24 24 23 24 22 19 17 15 16 18 18 19 20
27 28 25 23 22 17 18 12 13 12 8 4 1 3 4 2 1 4 8 11 10 11 12 15 21 24 24 21 18 17 18 16 16 20 19 17 15 14 14 18 19 21 19
25 22 25 17 18 12 9 10 11 10 9 7 6 4 4 3 4 6 9 12 13 12 13 15 19 21 18 17 16 17 14 15 15 15 16 15 15 15 14 16 17 16 19
16 11 7 15 11 13 9 9 11 12 8 5 7 7 8 7 9 13 14 14 14 15 20 17 15 14 14 12 11 11 10 12 13 12 14 14 14 13 13 14 14 15 17
14 12 12 14 12 12 8 4 7 10 9 9 8 8 7 9 12 15 16 17 18 17 14 14 14 14 12 12 12 13 12 12 11 10 11 10 14 13 12 12 12 15 15
21 19 15 15 12 11 8 9 8 4 2 3 8 8 11 12 16 19 20 19 17 12 12 15 13 14 13 11 12 12 14 13 11 12 10 9 11 12 12 12 12 15 14
21 18 14 10 11 9 9 9 9 10 9 7 7 10 9 15 21 20 15 16 14 8 12 14 13 13 13 13 12 12 13 13 12 10 10 9 9 11 11 11 12 14 15
18 18 14 12 12 10 11 10 10 9 10 9 9 9 12 16 22 17 11 8 12 12 12 13 13 13 14 14 14 13 13 13 12 12 11 9 10 10 11 11 13 17 17
13 19 15 14 14 14 14 12 12 11 11 12 12 10 13 22 18 16 15 15 14 14 14 14 14 14 15 16 16 15 14 13 12 12 10 9 9 11 12 12 14 14 15
16 15 13 13 13 13 13 15 15 14 15 16 16 12 20 17 15 16 16 16 16 16 15 15 15 16 17 17 16 15 15 14 13 12 11 10 10 13 13 14 13 14 15
20 19 17 16 17 17 17 16 16 17 17 17 17 18 22 18 18 17 18 18 17 16 16 16 17 17 17 17 16 16 16 15 14 13 12 11 12 12 14 14 14 12 13
24 23 21 20 19 19 20 19 19 20 20 20 20 21 22 22 21 21 20 19 18 18 17 17 18 18 17 18 16 16 17 16 14 12 12 11 12 10 12 13 13 13 11
26 26 25 24 23 22 22 22 21 21 22 22 22 22 23 24 24 24 23 21 20 19 19 19 19 21 22 21 19 18 18 17 14 13 13 11 12 13 12 10 10 11 11
25 25 24 23 22 22 22 22 23 23 23 24 24 25 25 26 26 25 24 23 22 22 23 24 25 24 23 21 21 20 20 20 19 17 13 13 13 16 13 11 11 12 14
25 23 23 23 22 22 22 22 23 24 24 25 25 26 26 28 27 27 26 25 24 26 27 25 23 23 22 22 22 21 21 22 21 22 20 17 17 16 15 14 14 14 10
Wind_Direction
233 188 187 186 187 179 174 172 160 151 153 154 157 151 157 162 157 145 139 143 138 116 57 328 321 325 330 326 323 315 315 308 310 309 314 317 317 316 325 321 323 318 317
209 199 198 186 174 163 165 163 155 157 158 158 158 153 158 161 159 164 152 138 129 83 342 331 325 335 332 326 326 324 313 302 301 301 306 314 314 321 317 332 334 324 312
202 193 185 167 168 163 164 162 159 159 159 157 157 160 161 161 164 155 134 133 113 63 330 320 323 323 316 321 324 319 316 312 311 311 308 304 317 354 341 334 337 321 320
235 179 172 174 164 167 165 158 157 159 157 158 159 159 158 165 162 153 133 127 95 349 325 309 312 305 309 325 320 318 325 325 309 306 310 314 321 7 348 337 336 331 332
189 161 161 168 165 164 158 158 157 159 157 159 157 156 157 154 172 130 117 90 28 331 301 301 300 295 302 294 317 329 328 320 318 321 320 322 336 355 350 325 324 325 319
202 170 169 169 160 161 158 159 157 158 161 159 157 155 153 126 169 177 124 96 329 295 298 305 303 299 293 269 302 285 318 307 313 311 310 314 315 335 337 324 316 321 317
223 168 165 156 161 162 161 158 156 155 148 154 155 156 152 111 100 73 61 327 290 286 295 303 306 304 317 300 309 294 302 310 287 285 299 304 325 327 337 320 316 311 304
217 167 153 158 164 160 157 151 144 143 145 133 116 113 130 103 73 34 349 320 297 299 293 294 292 298 302 298 296 294 291 293 304 260 288 294 304 314 313 301 295 287 289
84 96 126 124 122 117 107 109 112 117 115 112 120 120 115 74 84 62 353 314 304 298 294 293 286 290 291 293 290 292 294 296 297 314 306 292 292 299 299 292 291 297 293
78 90 97 107 104 97 104 108 104 101 116 118 120 114 88 30 344 352 323 304 303 300 304 299 347 261 277 278 282 288 295 297 299 292 292 294 296 295 287 272 268 282 289
68 74 87 99 108 107 101 103 105 103 105 103 94 83 259 270 261 296 296 314 319 323 310 304 314 342 330 297 293 286 283 293 295 288 286 291 290 292 292 286 254 262 295
68 67 64 78 77 88 94 100 99 99 82 55 66 0 349 35 134 84 339 325 321 312 303 301 294 302 303 296 294 285 283 285 280 275 279 282 280 282 287 290 297 292 282
66 73 82 74 75 75 85 88 75 73 60 355 321 21 30 20 300 335 351 341 333 321 304 299 302 306 306 303 295 291 284 277 268 269 270 271 277 284 284 285 284 286 277
60 73 60 67 64 68 67 59 58 48 42 11 343 0 343 323 2 9 335 323 319 322 325 310 303 297 294 285 279 278 272 270 270 271 269 276 287 286 287 283 286 289 292
48 68 131 96 100 93 83 61 67 58 32 6 3 348 341 335 2 331 321 310 310 304 306 306 306 302 299 303 299 296 298 289 283 280 280 280 285 279 285 285 287 292 288
44 57 51 49 53 52 51 109 92 62 42 42 30 25 349 332 322 318 321 314 304 303 304 299 294 291 303 299 298 298 292 286 283 278 276 278 283 291 287 287 289 291 292
38 26 39 39 32 32 23 26 66 199 87 38 20 6 338 339 340 334 329 322 317 302 271 266 284 300 297 297 292 289 290 281 285 281 288 278 281 283 286 288 292 292 289
32 24 30 33 26 19 20 17 18 18 360 31 11 353 341 342 337 336 336 327 321 323 250 286 298 300 298 295 294 293 292 288 291 280 292 288 290 285 285 286 289 287 291
33 24 12 18 27 13 15 10 13 11 360 4 12 7 348 334 329 334 333 292 292 302 299 297 299 302 299 295 294 294 292 291 292 289 282 283 287 291 292 283 283 285 286
37 35 15 13 17 12 9 4 5 3 356 357 354 2 344 341 339 338 335 325 318 310 304 305 306 301 297 296 295 294 294 293 292 297 295 283 287 277 274 272 276 284 290
22 23 18 20 19 8 4 8 5 2 359 356 353 25 3 344 332 329 326 323 317 310 308 306 304 300 298 295 295 293 293 292 285 290 286 282 280 280 269 277 264 273 281
22 18 15 15 15 8 7 5 3 4 354 351 348 357 354 347 337 330 324 320 317 312 312 309 302 298 296 292 291 290 289 287 286 286 287 275 281 265 270 256 271 263 267
18 15 13 13 13 6 10 3 4 358 353 350 350 351 347 341 334 328 324 322 320 318 314 307 302 298 294 291 288 283 281 280 280 275 274 293 274 274 271 267 257 261 260
13 11 10 8 8 4 5 358 356 353 351 349 348 345 340 336 334 332 329 326 321 317 313 308 301 296 293 290 286 279 275 272 271 268 278 280 265 285 271 265 244 263 258
11 10 8 5 2 0 357 354 352 349 347 346 343 341 337 335 332 331 329 324 318 314 312 309 303 298 292 289 286 281 274 270 266 262 265 267 281 265 269 257 252 253 267
3 8 7 2 359 356 353 347 346 343 343 339 339 337 335 332 331 330 326 321 318 315 314 310 305 301 297 293 290 284 271 267 264 261 254 254 255 257 268 243 257 241 279
Height
735 736 738 742 746 750 756 761 766 771 776 781 786 788 796 802 804 805 808 810 811 809 812 814 816 815 813 812 810 808 807 805 800 797 795 790 787 784 782 779 776 771 766
734 735 737 740 744 747 753 758 763 770 775 780 785 789 795 800 803 805 802 806 807 807 811 813 814 813 813 811 810 807 807 805 801 797 795 790 786 783 781 779 776 771 766
731 731 734 738 744 748 753 758 763 769 774 778 783 789 793 798 802 802 801 804 805 806 809 811 812 812 812 809 809 809 805 802 800 795 792 788 784 782 780 778 775 771 765
728 726 729 736 742 748 753 757 762 769 774 779 784 788 793 798 801 800 800 801 803 806 808 810 809 810 811 811 810 807 805 803 800 793 787 782 782 782 783 781 777 772 768
723 726 729 734 740 747 751 757 763 769 774 779 783 788 793 796 801 798 800 801 803 804 808 808 808 806 807 807 809 809 807 804 803 799 794 788 783 782 782 782 778 774 769
722 725 730 734 739 747 752 758 764 768 775 779 783 788 792 796 798 798 798 800 802 804 805 806 806 804 802 803 802 803 805 803 801 799 796 792 788 787 784 786 782 776 771
720 723 727 732 740 747 753 758 763 769 775 781 784 787 792 796 797 797 797 800 801 801 801 803 803 801 802 802 801 799 800 800 798 798 796 794 792 790 787 788 784 782 774
719 721 724 733 740 745 751 757 764 769 774 778 783 789 795 797 796 797 799 800 801 799 798 798 800 800 797 798 799 798 796 797 795 793 792 792 791 789 787 788 783 780 772
720 724 727 733 741 748 753 759 764 768 772 780 786 791 792 797 797 796 798 799 797 797 796 794 794 794 795 794 797 797 795 793 793 790 790 791 788 787 784 782 779 774 767
727 730 734 738 745 752 758 762 769 775 781 786 784 788 789 796 795 795 796 797 796 794 792 792 789 789 788 790 792 793 791 789 789 788 786 784 784 782 779 777 776 772 765
740 742 742 749 754 758 763 769 772 777 781 784 786 788 788 792 792 793 795 797 794 791 790 789 788 788 788 788 788 789 787 787 785 786 781 777 777 777 773 771 771 772 766
751 755 761 762 769 770 769 774 773 780 782 785 782 786 784 786 792 790 793 794 795 792 790 788 788 784 783 783 784 783 784 782 781 781 776 773 772 771 770 769 767 765 763
766 770 770 777 778 780 775 777 778 775 780 786 786 785 787 790 790 789 789 790 791 790 788 787 784 782 781 779 778 778 777 776 775 775 774 769 767 766 766 767 765 761 759
773 776 774 778 781 782 785 787 782 782 781 787 789 785 786 788 788 789 791 790 790 787 784 784 780 779 777 775 772 772 771 771 770 769 768 765 763 762 762 763 761 758 756
785 782 793 779 784 782 787 789 785 783 791 791 795 795 793 790 790 792 790 789 785 784 785 780 777 776 772 771 770 769 768 769 768 766 764 762 759 758 759 759 757 755 753
799 798 788 783 783 783 785 787 784 786 792 794 798 796 795 793 792 791 787 784 782 781 779 777 774 773 773 771 769 769 767 767 764 762 761 759 757 756 756 755 754 753 750
799 792 792 790 791 790 792 789 786 791 791 794 791 791 795 790 787 785 781 780 774 777 776 775 772 771 772 769 768 766 766 764 761 759 757 756 755 755 753 752 751 750 748
799 795 795 798 800 798 796 792 788 786 790 787 788 792 790 789 787 780 778 776 773 772 773 771 769 769 769 767 765 762 762 761 757 756 754 752 753 752 751 750 749 748 747
807 809 805 802 801 798 796 793 790 789 790 788 787 791 791 787 784 777 778 775 776 774 770 767 767 765 765 765 762 759 758 756 755 753 751 750 750 749 748 748 748 747 746
812 812 809 805 801 800 797 794 793 791 791 787 786 787 789 784 780 778 777 776 773 771 770 766 763 763 762 761 759 756 754 752 751 750 748 746 747 747 747 747 747 745 743
818 815 815 811 807 806 800 795 792 791 790 787 785 784 786 784 781 780 777 775 773 771 766 763 761 760 759 757 755 752 750 749 748 746 745 745 745 745 745 744 744 743 741
817 814 813 811 806 803 800 798 796 794 793 790 786 786 786 784 781 779 777 774 771 767 763 760 759 757 756 754 752 749 747 746 744 743 742 741 742 742 742 741 740 740 739
820 817 814 811 809 805 803 800 798 796 794 791 788 787 786 783 781 778 774 770 766 762 759 758 755 753 752 750 748 746 744 742 741 741 739 738 739 739 738 738 737 737 736
823 819 816 813 810 808 806 804 802 799 796 793 790 790 787 783 779 774 770 766 762 759 757 754 751 749 746 744 743 741 739 738 737 737 736 736 736 735 735 734 734 734 733
827 824 822 819 816 813 811 808 805 802 798 795 792 789 786 782 777 772 767 764 760 757 753 750 746 743 740 738 736 734 733 732 732 733 733 733 733 732 732 731 731 732 731
831 828 826 824 821 818 816 813 810 806 801 798 794 790 786 780 775 771 766 762 758 753 749 744 741 737 734 730 727 725 724 724 725 725 727 728 728 728 727 728 728 728 728